EW7175 Weather Reports


Display with metric or nautical units.
time (UTC)temp
F
wind
direction
speed
MPH
gust
MPH
rain 1hr
in
rain 24hr
in
rain mn
in
humidity
%
barometer
mb
20260507134541 64 31 0.0 0.0 0.00 0.02 0.00 84 1014.2
20260507133046 64 35 0.0 0.0 0.00 0.02 0.00 85 1014.6
20260507131540 64 355 0.0 0.0 0.00 0.02 0.00 86 1014.4
20260507130041 64 351 0.0 0.0 0.00 0.02 0.00 86 1014.7
20260507124540 64 27 0.0 0.0 0.00 0.02 0.00 86 1014.4
20260507123033 64 5 0.0 0.0 0.00 0.02 0.00 85 1014.1
20260507121531 64 13 0.0 0.0 0.00 0.02 0.00 86 1013.6
20260507120028 65 30 0.0 0.0 0.00 0.02 0.00 85 1013.4
20260507114541 65 360 0.0 0.0 0.00 0.02 0.00 85 1013.0
20260507113041 66 23 0.0 6.0 0.00 0.02 0.00 85 1012.7
20260507111528 66 39 3.0 9.0 0.00 0.02 0.00 85 1012.4
20260507110021 66 360 1.0 8.0 0.00 0.02 0.00 85 1012.7
20260507104518 66 16 4.0 11.0 0.00 0.02 0.00 85 1012.2
20260507103020 66 26 0.0 5.0 0.00 0.02 0.00 85 1012.2
20260507101519 66 9 4.0 8.0 0.00 0.02 0.00 85 1011.9
20260507100016 67 44 1.0 9.0 0.00 0.02 0.00 85 1011.8
20260507094517 66 52 2.0 7.0 0.00 0.02 0.00 85 1011.9
20260507093014 67 24 3.0 8.0 0.00 0.02 0.00 85 1011.2
20260507091512 67 5 3.0 5.0 0.00 0.02 0.00 85 1011.3
20260507090013 67 30 2.0 9.0 0.00 0.02 0.00 84 1011.4
20260507084511 67 39 4.0 13.0 0.00 0.02 0.00 84 1011.3
20260507083009 67 17 4.0 12.0 0.00 0.02 0.00 84 1011.4
20260507081508 67 307 4.0 11.0 0.00 0.02 0.00 84 1011.5
20260507080006 67 19 4.0 14.0 0.00 0.02 0.00 84 1011.5
20260507074504 67 18 1.0 7.0 0.00 0.02 0.00 84 1011.4
20260507073005 67 19 3.0 9.0 0.00 0.02 0.00 83 1011.7
20260507071502 67 12 3.0 9.0 0.00 0.02 0.00 83 1011.8
20260507070009 67 5 4.0 8.0 0.00 0.02 0.00 83 1012.0
20260507064600 67 346 2.0 6.0 0.00 0.02 0.00 82 1011.7
20260507063059 68 305 3.0 6.0 0.00 0.02 0.00 82 1011.9
20260507061558 68 40 4.0 10.0 0.00 0.02 0.00 82 1012.1
20260507060103 68 11 4.0 14.0 0.00 0.02 0.00 81 1011.5
20260507054557 68 49 5.0 13.0 0.00 0.02 0.00 81 1011.6
20260507053050 69 339 3.0 11.0 0.00 0.02 0.00 81 1011.4
20260507051548 69 11 4.0 11.0 0.00 0.02 0.00 81 1011.4
20260507050046 69 9 5.0 13.0 0.00 0.02 0.00 80 1011.4
20260507044555 70 333 4.0 10.0 0.00 0.02 0.02 81 1011.5
20260507043056 70 11 3.0 9.0 0.00 0.02 0.02 81 1011.4
20260507041540 70 5 4.0 10.0 0.00 0.02 0.02 80 1011.4
20260507040041 70 351 3.0 12.0 0.00 0.02 0.02 80 1011.3
20260507034541 71 348 3.0 10.0 0.00 0.02 0.02 81 1011.2
20260507033035 71 39 3.0 10.0 0.00 0.02 0.02 80 1011.0
20260507031531 72 360 4.0 10.0 0.00 0.02 0.02 80 1010.7
20260507030029 72 28 4.0 11.0 0.00 0.02 0.02 80 1010.5
20260507024526 73 334 2.0 10.0 0.00 0.02 0.02 80 1010.0
20260507023023 73 315 4.0 9.0 0.00 0.02 0.02 81 1009.9
20260507021521 74 355 1.0 10.0 0.00 0.02 0.02 81 1009.3
20260507020027 74 11 0.0 0.0 0.00 0.02 0.02 81 1009.1
20260507014517 74 306 0.0 0.0 0.00 0.02 0.02 81 1008.8
20260507013021 74 12 0.0 0.0 0.00 0.02 0.02 81 1008.6
20260507011518 75 335 0.0 0.0 0.00 0.02 0.02 81 1008.4
20260507010014 75 326 0.0 0.0 0.00 0.02 0.02 80 1008.0
20260507004512 76 25 0.0 0.0 0.00 0.02 0.02 81 1007.9
20260507003011 77 10 0.0 0.0 0.00 0.02 0.02 81 1007.4
20260507001536 78 350 0.0 0.0 0.00 0.02 0.02 81 1007.3
20260507000014 83 315 0.0 0.0 0.00 0.02 0.02 77 1007.0
20260506234509 84 309 0.0 0.0 0.00 0.02 0.02 81 1006.8
20260506233009 84 307 0.0 0.0 0.00 0.02 0.02 80 1006.6
20260506231508 84 306 0.0 0.0 0.00 0.02 0.02 79 1006.5
20260506230007 84 313 0.0 0.0 0.00 0.02 0.02 79 1006.5
20260506224508 84 304 0.0 0.0 0.00 0.02 0.02 81 1006.6
20260506223006 84 305 0.0 0.0 0.00 0.02 0.02 82 1006.5
20260506221506 84 309 0.0 3.0 0.00 0.02 0.02 81 1006.3
20260506220006 84 278 2.0 4.0 0.00 0.02 0.02 80 1006.2
20260506214504 84 298 0.0 0.0 0.00 0.02 0.02 83 1006.3
20260506213003 83 332 0.0 0.0 0.00 0.02 0.02 85 1006.5
20260506211503 84 5 0.0 0.0 0.02 0.02 0.02 81 1006.3
20260506210004 85 32 0.0 0.0 0.02 0.02 0.02 83 1006.4
20260506204602 84 355 0.0 0.0 0.02 0.02 0.02 84 1006.7
20260506203122 85 107 0.0 2.0 0.02 0.02 0.02 79 1006.9
20260506201559 86 101 0.0 0.0 0.00 0.00 0.00 75 1006.9
20260506194600 86 168 0.0 0.0 0.00 0.00 0.00 75 1007.1
20260506194518 86 183 0.0 0.0 0.00 0.00 0.00 76 1007.1
20260506193105 87 161 0.0 5.0 0.00 0.00 0.00 73 1007.1
20260506191552 86 109 0.0 0.0 0.00 0.00 0.00 76 1007.3
20260506191522 86 109 0.0 0.0 0.00 0.00 0.00 77 1007.3
20260506190052 85 71 0.0 0.0 0.00 0.00 0.00 78 1007.6
20260506184550 85 71 0.0 0.0 0.00 0.00 0.00 75 1007.7
20260506183046 85 71 0.0 0.0 0.00 0.00 0.00 77 1007.8
20260506181550 84 180 0.0 0.0 0.00 0.00 0.00 80 1008.2
20260506180039 83 181 0.0 0.0 0.00 0.00 0.00 82 1008.6
20260506174539 82 196 0.0 0.0 0.00 0.00 0.00 81 1008.8
20260506173036 82 200 0.0 0.0 0.00 0.00 0.00 81 1008.9
20260506171536 82 200 0.0 0.0 0.00 0.00 0.00 82 1009.2
20260506170038 82 170 0.0 0.0 0.00 0.00 0.00 82 1009.2
20260506164545 81 171 0.0 0.0 0.00 0.00 0.00 83 1009.1
20260506163030 82 85 0.0 0.0 0.00 0.00 0.00 84 1009.0
20260506161528 81 86 0.0 0.0 0.00 0.00 0.00 84 1008.8
20260506160027 81 86 0.0 0.0 0.00 0.00 0.00 84 1008.6
20260506154526 81 38 0.0 0.0 0.00 0.00 0.00 84 1008.7
20260506153024 81 38 0.0 0.0 0.00 0.00 0.00 84 1008.6
20260506151522 81 38 0.0 0.0 0.00 0.00 0.00 85 1008.4
20260506150020 81 136 0.0 0.0 0.00 0.00 0.00 85 1008.2
20260506144524 80 105 0.0 0.0 0.00 0.00 0.00 87 1008.1
20260506143014 79 103 0.0 0.0 0.00 0.00 0.00 88 1007.8
20260506141525 79 101 0.0 0.0 0.00 0.00 0.00 88 1007.9
20260506140012 78 101 0.0 0.0 0.00 0.00 0.00 90 1008.0